User: anonymous   Login
Location: Unspecified
(0.0000°N, 0.0000°E)
Time: 09:45:11
(UTC+00:00)
Language:

USA 103 - Orbit

View from above orbital plane
View from above orbital plane
View from above satellite
View from above satellite

Ground track
Ground track

The orbit data is extracted from the following two-line orbital elements,

1 23097U 94026A   20020.84436755 0.00000000  00000-0  00000-0 0    01
2 23097  63.9356  41.1939 6921741 260.4037  21.6997  2.00615426    04
Epoch (UTC): 20 January 2020 20:15:53
Eccentricity: 0.6921741
inclination: 63.9356°
perigee height: 1796 km
apogee height: 38558 km
right ascension of ascending node: 41.1939°
argument of perigee: 260.4037°
revolutions per day: 2.00615426
mean anomaly at epoch: 21.6997°
orbit number at epoch: 0

The dashed part of the orbit path shows where the satellite is in the earth's shadow,  

DLR